Location: Asheville, NC
(35.6000°N, 82.5500°W)
Time: 17:06:13
(UTC-05:00)

KAITUO 1B - Pass Details

Date: 12 February 2018
Orbit: 498 x 522 km, 97.5° (Epoch: 17 February)

Event Time Altitude Azimuth Distance (km) Brightness Sun altitude
Rises 06:48:14 0° 10° (N) 2,596 ? -7.1°
Reaches altitude 10° 06:50:19 10° 10° (N) 1,711 ? -6.7°
Maximum altitude 06:54:00 85° 284° (WNW) 509 ? -6.0°
Drops below altitude 10° 06:57:41 10° 194° (SSW) 1,710 ? -5.2°
Sets 06:59:46 0° 194° (SSW) 2,594 ? -4.8°
